Wind_Speed
7 6 6 6 6 5 4 3 2 2 1 1 1 1 2 3 4 5 5 5 5 6 7 8 8 9 9 8 8 7 8 8 8 9 10 9 9 8 8 10 10 10 10
8 7 7 6 6 5 5 3 3 2 2 2 1 1 1 2 3 4 5 6 5 6 7 8 8 8 8 7 7 8 9 9 9 9 9 9 9 8 9 9 10 10 10
8 8 8 6 6 6 5 4 4 3 2 2 1 1 1 1 1 3 5 5 5 5 6 6 6 7 7 7 8 8 9 9 9 9 9 8 8 9 9 9 9 10 10
8 8 8 7 6 6 5 4 4 3 2 1 1 1 1 1 1 2 2 4 4 4 5 4 5 5 7 7 8 8 9 9 9 9 9 9 9 9 10 9 9 10 9
8 8 8 8 7 6 6 4 3 3 2 1 1 1 1 1 1 2 2 3 4 4 4 4 5 5 5 6 6 7 7 8 8 9 9 9 10 10 10 9 9 9 9
9 9 9 8 8 7 6 5 3 3 2 2 1 1 1 1 1 2 2 3 4 3 3 4 4 4 4 5 6 6 7 7 8 8 8 9 9 9 8 8 8 8 8
10 9 9 8 8 8 7 6 4 3 3 3 2 1 1 0 1 2 2 3 3 3 2 3 3 3 3 4 5 5 6 6 7 6 7 8 7 7 7 8 8 8 8
10 10 9 9 8 8 8 7 6 5 4 4 3 2 2 1 0 1 2 3 2 2 2 2 2 2 3 3 3 4 4 4 5 5 5 5 6 6 6 7 7 7 7
10 10 9 9 9 8 8 8 7 6 5 5 5 4 3 2 1 1 1 1 2 2 1 1 2 3 3 3 3 4 4 3 4 4 3 4 5 5 6 6 6 7 7
10 10 10 9 9 9 8 8 7 7 6 6 6 6 6 5 4 3 2 1 1 2 1 1 2 2 1 2 3 3 4 3 2 3 3 4 4 5 5 5 5 5 6
10 10 10 10 10 9 10 9 9 7 7 7 7 7 7 6 6 5 3 2 1 2 1 1 1 1 1 1 2 2 3 3 3 2 2 2 3 4 4 4 4 5 5
11 11 10 10 10 10 10 10 10 9 8 8 8 8 8 7 7 6 5 4 3 3 2 3 3 2 2 2 2 2 2 3 2 1 1 2 2 2 2 2 4 5 5
11 11 11 10 10 10 10 10 10 9 9 9 8 8 8 8 7 7 6 5 5 4 3 3 3 3 2 2 2 2 1 1 1 0 1 0 0 1 1 2 3 4 4
11 11 11 11 11 11 11 10 10 10 9 9 8 8 9 9 8 7 7 6 6 5 5 4 3 4 3 2 1 1 1 1 1 1 1 1 0 1 1 2 2 3 3
11 11 11 11 11 12 11 10 10 9 8 8 8 8 8 7 7 7 7 6 5 5 5 4 4 3 3 1 1 1 2 1 2 2 2 1 1 1 2 2 3 3 3
12 12 11 11 11 11 11 11 10 10 9 8 8 8 7 7 6 6 6 6 5 4 4 4 4 4 3 2 2 3 3 3 2 2 2 2 2 3 3 3 4 4 4
12 12 12 12 12 11 11 11 11 10 10 9 9 9 8 8 8 7 7 6 7 5 5 5 5 3 3 2 3 4 3 3 2 2 2 3 3 4 4 4 5 5 4
11 12 12 11 11 11 11 11 11 11 10 9 9 9 9 8 8 9 8 7 7 6 5 5 4 4 4 4 4 4 3 2 2 3 3 4 3 3 4 5 5 5 5
11 11 11 11 11 11 11 11 11 10 10 10 9 9 9 9 8 8 8 7 7 6 5 6 5 5 5 5 4 3 3 3 3 3 4 4 4 4 4 5 6 7 7
11 11 11 11 11 11 10 10 10 10 10 10 10 9 9 8 7 8 7 7 7 7 6 7 6 5 5 5 5 4 4 4 4 4 5 5 5 5 6 6 8 8 8
10 10 10 10 10 11 10 10 10 10 10 10 9 10 9 8 8 8 8 8 8 7 7 7 6 5 5 5 6 5 5 5 5 6 6 5 6 6 6 8 8 8 8
10 9 9 10 10 10 10 10 9 10 10 10 9 9 9 8 8 8 8 8 8 7 8 7 6 5 5 5 5 6 6 6 6 6 6 6 6 6 6 7 8 8 8
9 9 9 9 9 9 10 10 9 9 9 10 10 8 8 8 8 8 8 9 8 8 8 8 7 7 6 6 6 6 7 7 7 7 8 7 7 7 7 8 8 9 10
8 8 8 8 8 8 8 9 8 8 9 9 10 9 8 8 8 8 8 9 8 8 9 9 8 8 8 7 8 8 8 8 9 9 8 8 9 9 9 10 10 10 11
8 8 8 8 8 7 7 7 8 8 8 9 9 9 9 8 8 8 8 8 8 8 9 10 10 10 9 9 9 9 9 9 10 9 9 10 10 10 11 11 12 12 12
7 8 8 8 7 7 7 6 7 7 8 8 9 9 9 9 9 9 8 9 9 9 10 11 11 11 10 10 10 10 10 10 10 9 10 10 11 11 12 13 13 14 14
Wind_Direction
41 39 39 38 37 37 37 36 13 2 4 4 116 140 201 197 194 207 211 217 224 218 214 211 209 214 219 221 227 231 238 239 241 237 232 225 223 228 227 227 227 232 234
44 42 38 35 36 38 37 38 24 21 28 45 61 94 175 206 214 214 211 211 218 218 216 218 221 216 216 223 232 236 240 242 245 244 236 231 229 229 229 228 232 235 237
48 40 37 34 35 34 37 44 46 44 51 51 44 44 140 194 180 202 201 200 205 208 209 219 226 225 230 232 235 239 243 245 244 244 243 240 236 235 236 233 234 237 239
49 42 40 40 39 39 40 44 50 56 62 52 25 38 109 125 104 135 172 184 188 199 207 219 230 235 239 240 240 246 252 249 245 243 245 242 240 235 234 233 235 238 235
48 44 44 47 47 44 40 35 45 50 51 51 44 65 91 100 118 128 160 186 191 202 220 232 236 239 239 241 248 258 255 244 244 246 246 243 239 235 234 237 240 239 236
50 46 47 47 47 46 45 44 49 59 54 69 69 96 101 118 146 177 184 198 192 196 221 225 232 242 245 250 253 258 258 256 250 247 242 240 241 237 239 238 236 234 234
48 48 47 43 43 45 48 50 52 59 58 70 59 70 73 100 175 175 182 179 184 185 192 208 238 246 254 252 249 252 252 255 258 250 245 242 244 243 243 240 238 234 232
46 49 47 43 44 46 47 47 50 53 54 60 56 49 40 44 78 207 206 200 208 196 201 227 243 241 227 245 256 247 240 244 247 239 240 242 241 246 240 242 242 233 229
43 47 48 43 43 43 42 45 47 49 58 58 56 53 52 61 95 128 150 190 200 192 186 217 250 241 230 235 240 231 238 236 225 234 236 229 230 233 238 244 244 235 232
46 47 46 43 42 40 40 42 42 43 54 55 55 55 56 62 70 80 90 112 160 147 167 225 250 228 238 216 217 228 233 225 217 236 230 230 233 233 237 242 240 235 228
49 49 46 45 41 41 44 45 42 41 51 57 58 61 61 65 70 71 81 94 105 111 139 166 175 75 91 161 174 183 206 213 211 221 225 243 253 237 237 234 229 226 222
48 50 48 46 42 45 46 44 44 50 61 58 60 65 66 69 68 69 84 79 96 95 83 77 80 58 72 116 122 139 181 201 178 180 227 253 246 228 233 230 231 221 222
45 46 48 47 44 45 46 47 50 59 65 62 61 64 64 64 66 67 72 80 86 76 66 66 52 47 75 96 124 148 172 176 171 124 51 314 256 261 251 240 224 226 233
43 47 49 49 48 50 52 55 59 60 62 63 63 64 64 63 62 66 66 68 67 65 68 68 59 52 53 56 114 121 110 168 65 38 1 358 282 200 246 230 237 243 250
45 49 51 51 54 55 56 59 58 59 60 62 62 61 59 55 62 68 60 57 58 60 62 67 60 61 57 25 46 34 13 10 11 0 350 333 250 234 247 253 262 258 255
49 52 54 55 57 57 57 57 56 60 60 60 58 57 58 55 57 54 55 56 49 51 51 52 50 31 32 32 31 17 12 8 5 344 335 325 302 293 297 279 270 269 275
51 52 55 58 60 59 55 51 52 54 55 57 55 56 57 56 55 47 50 50 43 37 33 39 31 19 41 39 23 20 19 6 348 336 328 327 320 309 301 294 286 279 275
49 51 53 55 55 55 53 49 49 50 52 56 55 55 56 54 52 49 44 42 39 35 35 34 32 35 29 26 23 17 10 351 330 328 327 328 319 303 295 293 293 292 289
47 48 49 47 48 50 48 47 44 45 47 47 48 51 51 50 50 46 41 41 39 29 29 28 28 21 18 16 12 3 345 333 322 319 316 317 307 301 295 287 284 290 297
44 47 45 42 43 45 46 46 43 42 42 43 42 46 44 42 41 39 37 36 33 27 24 25 21 18 16 8 358 354 347 332 318 313 308 304 297 297 301 297 292 290 295
39 40 39 39 39 39 42 43 42 39 38 37 37 37 36 37 34 32 32 26 23 18 17 18 16 13 6 354 346 345 338 325 315 309 307 304 304 304 303 300 299 295 299
34 32 31 32 33 33 34 35 37 37 36 35 32 30 31 31 28 24 25 23 18 17 15 12 8 2 354 344 337 331 325 319 316 312 309 306 305 305 303 303 300 300 297
28 27 26 27 29 30 29 29 31 31 28 29 27 22 19 19 19 21 19 17 18 13 6 356 350 348 340 333 324 320 315 313 310 312 312 308 305 305 303 304 299 297 298
21 20 20 22 22 22 22 25 24 24 24 22 18 13 9 8 8 8 6 6 6 3 358 350 343 337 334 329 322 317 315 314 311 309 309 307 303 301 303 303 300 298 297
11 11 15 17 18 18 18 21 19 16 14 13 12 9 7 8 5 360 360 359 356 354 349 346 342 338 330 324 320 317 316 314 311 306 305 304 305 302 300 299 299 298 296
359 357 2 6 5 4 9 13 12 9 8 6 6 2 2 2 2 359 354 351 349 347 346 343 340 336 332 328 322 318 314 312 310 307 305 304 304 302 301 300 301 300 299
Height
5886 5884 5884 5883 5882 5882 5881 5881 5880 5880 5880 5879 5879 5879 5879 5879 5879 5879 5880 5880 5880 5881 5881 5882 5882 5882 5882 5883 5883 5883 5883 5883 5883 5884 5884 5884 5885 5885 5885 5885 5886 5886 5886
5886 5885 5884 5884 5883 5882 5881 5881 5881 5880 5880 5880 5879 5879 5879 5878 5877 5877 5878 5879 5879 5880 5880 5881 5881 5881 5881 5882 5882 5882 5882 5882 5882 5882 5883 5883 5883 5884 5884 5884 5884 5885 5885
5887 5886 5885 5884 5883 5883 5882 5881 5881 5881 5880 5880 5880 5879 5879 5877 5877 5877 5877 5878 5879 5879 5880 5880 5880 5881 5881 5881 5881 5881 5881 5881 5881 5881 5881 5882 5882 5882 5883 5883 5883 5883 5884
5888 5887 5886 5885 5884 5883 5882 5882 5881 5881 5881 5880 5880 5879 5879 5878 5877 5877 5877 5878 5879 5879 5879 5880 5880 5880 5880 5880 5880 5880 5880 5880 5880 5880 5880 5880 5881 5881 5881 5881 5881 5881 5882
5889 5888 5887 5886 5885 5884 5883 5882 5882 5881 5881 5880 5880 5879 5879 5878 5878 5878 5878 5878 5879 5879 5879 5879 5879 5879 5879 5879 5880 5879 5879 5879 5878 5878 5878 5879 5879 5879 5879 5879 5880 5880 5880
5890 5889 5888 5887 5885 5884 5883 5882 5882 5881 5881 5880 5880 5879 5879 5879 5879 5878 5878 5878 5879 5879 5879 5879 5879 5879 5878 5878 5878 5878 5878 5878 5877 5877 5877 5877 5877 5878 5878 5878 5878 5879 5879
5891 5890 5889 5887 5886 5885 5884 5883 5882 5882 5881 5881 5880 5880 5879 5879 5879 5878 5878 5878 5878 5879 5879 5879 5878 5878 5877 5877 5877 5876 5876 5876 5876 5876 5875 5876 5876 5876 5876 5876 5877 5877 5878
5892 5891 5890 5888 5887 5886 5885 5884 5883 5883 5882 5881 5881 5880 5880 5879 5878 5878 5878 5878 5878 5879 5878 5878 5878 5877 5876 5876 5875 5875 5875 5875 5875 5875 5875 5875 5875 5875 5875 5875 5875 5876 5876
5893 5892 5891 5890 5888 5887 5886 5885 5884 5883 5882 5882 5881 5881 5880 5879 5878 5878 5878 5878 5878 5878 5878 5878 5877 5875 5874 5874 5874 5874 5875 5874 5874 5874 5874 5874 5874 5874 5874 5874 5874 5874 5875
5895 5893 5892 5891 5889 5888 5887 5886 5885 5884 5883 5882 5882 5881 5880 5878 5878 5878 5878 5878 5878 5878 5878 5877 5876 5873 5872 5873 5873 5874 5874 5874 5874 5874 5874 5873 5873 5873 5873 5873 5873 5873 5873
5896 5894 5893 5892 5890 5889 5888 5887 5885 5884 5884 5883 5882 5882 5881 5879 5879 5879 5878 5878 5878 5877 5877 5876 5875 5873 5872 5872 5873 5873 5873 5873 5873 5873 5873 5873 5873 5872 5872 5872 5871 5872 5872
5897 5896 5894 5893 5891 5890 5889 5887 5886 5885 5885 5884 5883 5883 5882 5881 5881 5880 5879 5878 5877 5877 5877 5876 5875 5874 5873 5873 5874 5874 5874 5874 5874 5874 5873 5873 5873 5872 5872 5871 5872 5871 5871
5898 5897 5896 5894 5893 5891 5890 5889 5888 5887 5886 5885 5884 5884 5883 5883 5882 5881 5881 5880 5879 5878 5878 5877 5876 5876 5875 5875 5875 5875 5875 5874 5874 5874 5873 5873 5872 5872 5871 5871 5871 5871 5871
5899 5898 5897 5896 5894 5893 5891 5890 5889 5888 5888 5887 5886 5885 5884 5883 5883 5883 5882 5881 5880 5879 5878 5878 5878 5877 5877 5876 5876 5876 5875 5875 5874 5874 5874 5873 5872 5871 5871 5871 5871 5870 5870
5901 5899 5898 5897 5896 5894 5893 5892 5891 5890 5889 5888 5887 5886 5885 5884 5884 5883 5883 5882 5881 5880 5879 5879 5878 5878 5877 5877 5876 5876 5876 5875 5875 5874 5874 5873 5872 5871 5871 5871 5870 5870 5869
5903 5901 5900 5898 5897 5896 5895 5893 5892 5891 5890 5889 5888 5887 5886 5885 5885 5884 5883 5882 5881 5880 5879 5879 5879 5878 5877 5877 5876 5876 5875 5875 5874 5874 5873 5873 5872 5871 5871 5870 5870 5869 5868
5904 5903 5901 5900 5899 5897 5896 5895 5893 5892 5891 5890 5889 5888 5887 5886 5885 5885 5884 5883 5882 5881 5880 5879 5879 5878 5878 5877 5877 5876 5875 5874 5874 5873 5873 5872 5871 5871 5870 5870 5869 5868 5867
5905 5904 5903 5901 5900 5899 5898 5896 5895 5894 5893 5891 5890 5889 5888 5887 5886 5885 5884 5883 5882 5881 5880 5880 5879 5878 5878 5877 5876 5875 5875 5874 5873 5872 5872 5871 5870 5870 5869 5868 5867 5866 5866
5906 5905 5904 5903 5901 5900 5899 5898 5896 5895 5894 5892 5891 5890 5889 5888 5887 5886 5885 5884 5883 5882 5881 5880 5879 5878 5878 5877 5876 5875 5874 5873 5873 5872 5871 5870 5869 5868 5867 5866 5866 5865 5864
5908 5906 5905 5904 5902 5901 5900 5899 5897 5896 5895 5894 5892 5891 5890 5889 5888 5887 5886 5885 5883 5882 5881 5880 5879 5878 5878 5877 5876 5875 5873 5873 5872 5871 5870 5868 5867 5867 5865 5864 5864 5863 5862
5909 5907 5906 5904 5903 5902 5901 5900 5898 5897 5896 5894 5893 5892 5891 5890 5889 5887 5886 5885 5883 5882 5881 5880 5879 5878 5877 5876 5875 5874 5873 5872 5871 5870 5868 5867 5866 5864 5863 5862 5861 5860 5859
5909 5908 5906 5905 5904 5903 5902 5900 5899 5898 5897 5895 5894 5893 5892 5890 5889 5888 5886 5885 5884 5882 5881 5880 5879 5877 5876 5875 5874 5873 5872 5871 5869 5868 5867 5865 5864 5862 5861 5860 5859 5858 5857
5910 5908 5907 5905 5904 5903 5902 5901 5900 5899 5897 5896 5895 5893 5892 5890 5889 5888 5886 5885 5884 5882 5881 5880 5878 5877 5875 5874 5873 5872 5871 5869 5868 5866 5865 5863 5862 5860 5858 5858 5856 5855 5854
5910 5908 5907 5906 5905 5903 5902 5901 5900 5899 5898 5897 5895 5894 5892 5891 5889 5888 5886 5885 5883 5882 5881 5879 5877 5875 5874 5872 5871 5869 5868 5867 5866 5864 5863 5861 5860 5858 5856 5855 5854 5852 5851
5910 5908 5907 5906 5904 5903 5902 5901 5900 5899 5898 5897 5895 5894 5892 5891 5889 5887 5885 5884 5882 5881 5879 5877 5876 5874 5872 5870 5869 5867 5866 5864 5863 5862 5860 5859 5857 5855 5854 5852 5851 5850 5848
5910 5909 5907 5906 5904 5903 5902 5901 5900 5899 5898 5897 5895 5894 5892 5890 5889 5887 5885 5883 5881 5880 5878 5876 5874 5872 5870 5868 5866 5865 5863 5862 5861 5859 5857 5856 5854 5853 5851 5849 5847 5846 5844